Weather observations for the past three days for
McConnell Air Force Base
Imperial (Metric)
Date Time (cdt) Wind (mph) Vis. (mi.) Weather Sky Cond. Temperature (ºF) Relative Humidity Wind Chill (°F) Heat Index (°F) Pressure Precipitation (in)
Air Dwpt 6 hour altimeter (in) sea level (mb) 1 hr 3 hr 6 hr
Max. Min.
05 16:55 SW 8 10.00 Fair CLR 100.9 61.7 28% 102 29.86 1009.3
05 15:55 SW 12 G 16 10.00 Fair CLR 100.9 61.7 28% 102 29.88 1009.9
05 12:55 SW 10 10.00 Fair CLR 97.5 67.5 97.7 78.4 38% 102 29.94 1012.0
05 11:55 SW 9 10.00 Fair CLR 96.1 67.8 40% 101 29.96 1012.7
05 10:55 S 8 10.00 Fair CLR 92.8 68.4 45% 97 29.95 1012.3
05 09:55 SW 10 10.00 Fair CLR 89.6 67.8 49% 93 29.95 1012.4
05 08:55 S 13 10.00 Fair CLR 85.8 68.2 56% 89 29.93 1011.7
05 07:55 S 7 10.00 Fair CLR 79 67.1 67% 81 29.93 1011.7
05 06:55 S 7 10.00 Fair CLR 78.8 66.9 84.6 78.8 67% 81 29.92 1011.4
05 05:55 S 7 10.00 Fair CLR 80.2 66.9 64% 83 29.91 1011.0
05 04:55 S 7 10.00 Fair CLR 80.1 67.1 65% 82 29.92 1011.3
05 03:55 S 6 10.00 Fair CLR 81.1 67.8 64% 84 29.92 1011.3
05 02:55 S 8 10.00 Fair CLR 83.5 67.1 58% 86 29.92 1011.3
05 01:55 S 8 10.00 Fair CLR 83.1 67.3 59% 86 29.91 1011.0
05 00:55 S 10 10.00 Fair CLR 84.4 67.5 96.6 84.4 57% 87 29.9 1010.7
04 23:55 S 10 10.00 Fair CLR 85.8 67.6 55% 89 29.91 1011.0
04 22:55 S 10 10.00 Fair CLR 87.8 67.3 51% 91 29.91 1011.0
04 21:55 S 9 10.00 Fair CLR 89.1 68 50% 93 29.9 1010.7
04 20:55 S 8 10.00 Fair CLR 91.4 67.6 46% 95 29.87 1009.7
04 19:55 S 8 10.00 Fair CLR 93.4 66.7 42% 97 29.86 1009.5
04 18:55 S 12 10.00 Fair CLR 96.6 66.7 99.5 94.5 38% 101 29.86 1009.4
04 17:55 S 15 10.00 Fair CLR 98.4 67.6 37% 104 29.85 1009.0
04 16:55 SW 14 G 21 10.00 Fair CLR 98.6 67.6 37% 104 29.86 1009.3
04 15:55 S 10 10.00 Fair CLR 98.6 67.6 37% 104 29.87 1009.6
04 14:55 SW 12 G 20 10.00 Fair CLR 98.4 69.1 39% 105 29.88 1010.0
04 13:55 S 14 10.00 Fair CLR 95.9 69.6 43% 102 29.9 1010.7
04 12:55 SW 13 10.00 Fair CLR 94.3 69.6 95 74.8 45% 100 29.92 1011.3
04 11:55 S 13 10.00 Fair CLR 91.6 70.2 50% 97 29.93 1011.7
04 10:55 S 9 10.00 Fair CLR 87.4 69.8 56% 92 29.93 1011.7
04 09:55 SW 12 10.00 Fair CLR 84.2 69.3 61% 88 29.93 1011.7
04 08:55 S 13 10.00 Fair CLR 80.8 69.3 68% 84 29.93 1011.7
04 07:55 S 9 10.00 Fair CLR 76.1 69.1 79% 77 29.92 1011.4
04 06:55 S 9 10.00 Fair CLR 75.2 68.9 82.8 75.2 81% 76 29.91 1011.1
04 05:55 S 7 10.00 Fair CLR 76.5 69.4 79% 78 29.91 1011.0
04 04:55 S 10 10.00 Fair CLR 78.4 69.4 74% 81 29.9 1010.7
04 03:55 S 13 10.00 Fair CLR 79 69.4 73% 82 29.89 1010.3
04 02:55 SW 9 10.00 Fair CLR 78.3 68.4 72% 80 29.89 1010.3
04 01:55 SW 7 10.00 Fair CLR 80.4 68.9 68% 83 29.9 1010.7
04 00:55 S 13 10.00 Fair CLR 82.9 68.9 96.4 82.8 63% 86 29.9 1010.7
03 23:55 S 13 10.00 Fair CLR 84.6 69.1 60% 88 29.88 1010.0
03 22:55 S 10 10.00 Fair CLR 85.6 69.1 58% 90 29.88 1010.0
03 21:55 S 15 10.00 Fair CLR 87.6 68.9 54% 92 29.87 1009.7
03 19:55 S 15 10.00 Fair CLR 93.4 66 41% 96 29.82 1008.0
03 18:55 S 14 10.00 Fair CLR 96.6 65.1 100.2 94.6 36% 100 29.81 1007.6
03 17:55 S 18 10.00 Fair CLR 98.8 64.6 33% 102 29.81 1007.6
03 16:55 S 16 G 23 10.00 Fair CLR 99.3 63.3 31% 102 29.81 1007.6
03 15:55 S 15 10.00 Fair CLR 100.2 64.9 32% 104 29.83 1008.2
03 14:55 S 13 G 23 10.00 Fair CLR 98.6 66.2 35% 103 29.84 1008.6
03 13:55 S 14 G 22 10.00 Fair CLR 96.6 66.7 38% 101 29.87 1009.6
03 12:55 S 15 10.00 Fair CLR 95 67.5 95 77.5 41% 99 29.89 1010.3
03 11:55 S 17 10.00 Fair CLR 91.8 68.5 47% 96 29.92 1011.4
03 10:55 S 18 10.00 Fair CLR 89.1 69.1 52% 94 29.92 1011.3
03 09:55 S 17 10.00 Fair CLR 85.6 69.6 59% 90 29.92 1011.4
03 08:55 S 15 10.00 Fair CLR 82.2 68.7 64% 85 29.93 1011.7
03 07:55 S 10 10.00 Fair CLR 79.2 67.6 68% 81 29.92 1011.4
03 06:55 S 9 10.00 Fair CLR 77.7 66.2 84.4 77.7 68% 80 29.91 1011.0
03 05:55 S 9 10.00 Fair CLR 79.7 66.9 65% 82 29.91 1011.0
03 04:55 S 10 10.00 Fair CLR 81.1 66.7 62% 84 29.91 1011.0
03 03:55 SW 12 10.00 Fair CLR 82.4 65.7 57% 84 29.9 1010.6
03 02:55 S 14 10.00 Fair CLR 83.3 64.4 53% 85 29.89 1010.2
03 01:55 S 12 10.00 Fair CLR 83.3 63.9 52% 85 29.89 1010.3
03 00:55 S 10 10.00 Fair CLR 84.4 63.7 97.5 84.2 50% 86 29.89 1010.3
02 23:55 S 13 10.00 Fair CLR 85.8 63.1 47% 87 29.89 1010.3
02 22:55 S 13 10.00 Fair CLR 88 63.3 44% 89 29.89 1010.3
02 21:55 S 10 10.00 Fair CLR 88.5 62.4 42% 89 29.88 1010.0
02 20:55 S 10 10.00 Fair CLR 90.7 62.2 39% 91 29.87 1009.7
02 19:55 S 12 10.00 Fair CLR 94.6 62.6 35% 96 29.85 1009.0
02 18:55 S 15 10.00 Fair CLR 97.5 62.6 102 97.5 32% 99 29.85 1009.0
02 17:55 S 14 G 23 10.00 Fair CLR 100 59.9 27% 100 29.85 1008.9
Date Time (cdt) Wind (mph) Vis. (mi.) Weather Sky Cond. Air Dwpt Max. Min. Relative Humidity Wind Chill (°F) Heat Index (°F) altimeter (in) sea level (mb) 1 hr 3 hr 6 hr
6 hour
Temperature (ºF) Pressure Precipitation (in)